KI5X Weather Reports


Display with metric or nautical units.
time (UTC)temp
F
wind
direction
speed
MPH
gust
MPH
rain 1hr
in
rain 24hr
in
rain mn
in
humidity
%
barometer
mb
20260906230037 98 0 2.0 7.0 0.00 0.00 0.00 42 1011.2
20260906225518 98 93 2.0 7.0 0.00 0.00 0.00 42 1011.2
20260906225016 98 160 2.0 10.0 0.00 0.00 0.00 41 1011.2
20260906224536 98 0 4.0 10.0 0.00 0.00 0.00 41 1011.4
20260906224019 98 0 3.0 8.0 0.00 0.00 0.00 40 1011.3
20260906223517 98 0 0.0 9.0 0.00 0.00 0.00 40 1011.3
20260906223038 99 84 3.0 9.0 0.00 0.00 0.00 39 1011.4
20260906222522 98 116 3.0 9.0 0.00 0.00 0.00 40 1011.4
20260906222017 99 72 3.0 13.0 0.00 0.00 0.00 41 1011.4
20260906221534 99 178 4.0 13.0 0.00 0.00 0.00 41 1011.5
20260906221021 99 128 4.0 13.0 0.00 0.00 0.00 41 1011.4
20260906220523 98 91 1.0 8.0 0.00 0.00 0.00 41 1011.4
20260906220034 99 155 3.0 12.0 0.00 0.00 0.00 40 1011.3
20260906215518 100 234 4.0 14.0 0.00 0.00 0.00 40 1011.4
20260906215019 100 173 7.0 14.0 0.00 0.00 0.00 40 1011.4
20260906214537 99 166 0.0 7.0 0.00 0.00 0.00 42 1011.3
20260906214018 99 122 2.0 9.0 0.00 0.00 0.00 42 1011.4
20260906213518 100 115 3.0 9.0 0.00 0.00 0.00 40 1011.5
20260906213035 99 118 4.0 9.0 0.00 0.00 0.00 40 1011.5
20260906212515 99 131 3.0 10.0 0.00 0.00 0.00 40 1011.6
20260906212016 99 148 4.0 10.0 0.00 0.00 0.00 41 1011.8
20260906211536 98 118 1.0 9.0 0.00 0.00 0.00 42 1011.8
20260906211019 99 0 2.0 9.0 0.00 0.00 0.00 41 1011.8
20260906210518 99 78 3.0 8.0 0.00 0.00 0.00 41 1012.0
20260906210039 100 87 2.0 13.0 0.00 0.00 0.00 40 1012.0
20260906205520 99 88 3.0 13.0 0.00 0.00 0.00 40 1012.1
20260906205019 99 74 3.0 9.0 0.00 0.00 0.00 42 1012.2
20260906204539 97 21 2.0 7.0 0.00 0.00 0.00 43 1012.2
20260906204018 97 97 1.0 8.0 0.00 0.00 0.00 44 1012.3
20260906203516 99 105 2.0 8.0 0.00 0.00 0.00 42 1012.3
20260906203034 99 71 2.0 10.0 0.00 0.00 0.00 42 1012.3
20260906202517 101 0 1.0 11.0 0.00 0.00 0.00 42 1012.3
20260906202017 100 195 4.0 11.0 0.00 0.00 0.00 41 1012.4
20260906201538 100 207 6.0 11.0 0.00 0.00 0.00 42 1012.6
20260906201019 99 169 3.0 12.0 0.00 0.00 0.00 42 1012.5
20260906200521 100 147 5.0 12.0 0.00 0.00 0.00 41 1012.7
20260906200032 100 99 3.0 11.0 0.00 0.00 0.00 42 1012.8
20260906195520 99 126 4.0 11.0 0.00 0.00 0.00 43 1012.8
20260906195017 99 129 4.0 10.0 0.00 0.00 0.00 43 1012.8
20260906194536 98 41 2.0 11.0 0.00 0.00 0.00 43 1012.9
20260906194018 98 127 4.0 11.0 0.00 0.00 0.00 44 1013.0
20260906193519 99 107 4.0 11.0 0.00 0.00 0.00 43 1013.1
20260906193034 99 74 3.0 11.0 0.00 0.00 0.00 42 1013.0
20260906192517 99 115 3.0 13.0 0.00 0.00 0.00 42 1013.1
20260906192017 99 59 3.0 13.0 0.00 0.00 0.00 42 1013.0
20260906191532 97 80 5.0 13.0 0.00 0.00 0.00 44 1013.2
20260906191020 97 101 4.0 13.0 0.00 0.00 0.00 44 1013.3
20260906190521 96 145 3.0 10.0 0.00 0.00 0.00 46 1013.3
20260906190037 98 0 3.0 10.0 0.00 0.00 0.00 46 1013.4
20260906185517 98 180 5.0 14.0 0.00 0.00 0.00 45 1013.4
20260906185016 96 75 3.0 14.0 0.00 0.00 0.00 47 1013.4
20260906184534 97 84 2.0 11.0 0.00 0.00 0.00 46 1013.4
20260906184017 96 78 2.0 13.0 0.00 0.00 0.00 47 1013.5
20260906183524 97 219 7.0 16.0 0.00 0.00 0.00 45 1013.5
20260906183043 98 184 7.0 16.0 0.00 0.00 0.00 46 1013.7
20260906182519 97 202 1.0 8.0 0.00 0.00 0.00 47 1013.7
20260906182018 98 86 1.0 8.0 0.00 0.00 0.00 46 1013.7
20260906181535 97 113 3.0 10.0 0.00 0.00 0.00 47 1013.8
20260906181018 96 350 1.0 11.0 0.00 0.00 0.00 47 1013.9
20260906180519 97 159 4.0 13.0 0.00 0.00 0.00 46 1013.9
20260906180037 97 93 2.0 14.0 0.00 0.00 0.00 46 1014.0
20260906175518 98 192 5.0 14.0 0.00 0.00 0.00 44 1014.1
20260906175020 97 145 4.0 13.0 0.00 0.00 0.00 46 1014.2
20260906174535 96 137 5.0 13.0 0.00 0.00 0.00 46 1014.1
20260906174021 96 130 3.0 12.0 0.00 0.00 0.00 48 1014.4
20260906173520 95 182 5.0 12.0 0.00 0.00 0.00 48 1014.4
20260906173037 95 182 6.0 11.0 0.00 0.00 0.00 49 1014.4
20260906172516 95 134 3.0 9.0 0.00 0.00 0.00 50 1014.6
20260906172018 94 162 1.0 8.0 0.00 0.00 0.00 51 1014.6
20260906171535 95 118 3.0 10.0 0.00 0.00 0.00 50 1014.9
20260906171018 95 93 4.0 14.0 0.00 0.00 0.00 51 1014.8
20260906170518 95 194 5.0 14.0 0.00 0.00 0.00 51 1014.9
20260906170036 94 142 3.0 8.0 0.00 0.00 0.00 51 1015.0
20260906165519 94 59 4.0 12.0 0.00 0.00 0.00 53 1014.9
20260906165020 94 136 5.0 12.0 0.00 0.00 0.00 54 1015.0
20260906164537 93 111 3.0 13.0 0.00 0.00 0.00 54 1015.0
20260906164021 94 180 6.0 13.0 0.00 0.00 0.00 53 1015.0
20260906163518 93 168 4.0 12.0 0.00 0.00 0.00 54 1015.0
20260906163038 93 175 4.0 12.0 0.00 0.00 0.00 54 1014.9
20260906162519 93 211 4.0 12.0 0.00 0.00 0.00 55 1014.9
20260906162019 92 0 2.0 6.0 0.00 0.00 0.00 56 1014.9
20260906161534 92 0 0.0 8.0 0.00 0.00 0.00 56 1014.9
20260906161020 92 142 3.0 8.0 0.00 0.00 0.00 55 1014.8
20260906160516 92 163 3.0 11.0 0.00 0.00 0.00 56 1015.0
20260906160040 91 156 4.0 11.0 0.00 0.00 0.00 58 1015.0
20260906155520 91 178 1.0 8.0 0.00 0.00 0.00 59 1015.0
20260906155020 90 13 2.0 10.0 0.00 0.00 0.00 59 1015.0
20260906154547 90 78 3.0 10.0 0.00 0.00 0.00 62 1015.0
20260906154022 90 84 0.0 8.0 0.00 0.00 0.00 62 1015.0
20260906153518 91 82 1.0 8.0 0.00 0.00 0.00 61 1014.8
20260906153037 90 205 2.0 7.0 0.00 0.00 0.00 61 1014.8
20260906152518 90 129 1.0 7.0 0.00 0.00 0.00 63 1014.6
20260906152017 89 69 2.0 4.0 0.00 0.00 0.00 64 1014.5
20260906151536 88 57 1.0 5.0 0.00 0.00 0.00 65 1014.6
20260906151018 88 136 1.0 7.0 0.00 0.00 0.00 65 1014.7
20260906150521 88 105 2.0 7.0 0.00 0.00 0.00 66 1014.7
20260906150042 87 140 1.0 5.0 0.00 0.00 0.00 67 1014.6
20260906145516 88 124 1.0 5.0 0.00 0.00 0.00 67 1014.6
20260906145018 87 163 1.0 3.0 0.00 0.00 0.00 67 1014.5
20260906144535 86 0 0.0 2.0 0.00 0.00 0.00 68 1014.7
20260906144017 86 94 0.0 2.0 0.00 0.00 0.00 70 1014.6
20260906143516 85 0 0.0 2.0 0.00 0.00 0.00 70 1014.5
20260906143037 85 0 0.0 2.0 0.00 0.00 0.00 70 1014.6
20260906142519 85 182 1.0 2.0 0.00 0.00 0.00 71 1014.7
20260906142020 84 0 0.0 2.0 0.00 0.00 0.00 72 1014.7
20260906141535 84 0 0.0 1.0 0.00 0.00 0.00 73 1014.7
20260906141022 84 0 0.0 1.0 0.00 0.00 0.00 73 1014.8
20260906140520 83 0 0.0 3.0 0.00 0.00 0.00 73 1014.7
20260906140033 83 0 1.0 3.0 0.00 0.00 0.00 74 1014.7
20260906135518 83 0 0.0 3.0 0.00 0.00 0.00 75 1014.6
20260906135018 83 0 1.0 3.0 0.00 0.00 0.00 76 1014.6
20260906134543 82 0 0.0 3.0 0.00 0.00 0.00 76 1014.7
20260906134020 82 0 0.0 3.0 0.00 0.00 0.00 77 1014.7
20260906133518 82 0 0.0 2.0 0.00 0.00 0.00 77 1014.6
20260906133049 82 95 0.0 3.0 0.00 0.00 0.00 78 1014.6
20260906132515 81 0 0.0 3.0 0.00 0.00 0.00 78 1014.6
20260906132017 81 140 0.0 3.0 0.00 0.00 0.00 78 1014.5
20260906131536 81 0 0.0 0.0 0.00 0.00 0.00 79 1014.5
20260906131022 81 0 0.0 0.0 0.00 0.00 0.00 79 1014.4
20260906130517 80 0 0.0 2.0 0.00 0.00 0.00 80 1014.5
20260906130037 80 0 0.0 2.0 0.00 0.00 0.00 80 1014.5
20260906125518 80 0 0.0 0.0 0.00 0.00 0.00 81 1014.5
20260906125022 79 0 0.0 0.0 0.00 0.00 0.00 81 1014.4
20260906124532 79 0 0.0 0.0 0.00 0.00 0.00 82 1014.2
20260906124019 79 0 0.0 0.0 0.00 0.00 0.00 82 1014.4
20260906123518 79 0 0.0 1.0 0.00 0.00 0.00 82 1014.4
20260906123036 79 0 0.0 1.0 0.00 0.00 0.00 82 1014.2
20260906122517 78 111 0.0 1.0 0.00 0.00 0.00 82 1014.2
20260906122015 78 0 0.0 1.0 0.00 0.00 0.00 82 1014.1
20260906121536 78 0 0.0 2.0 0.00 0.00 0.00 83 1014.0
20260906121024 78 0 0.0 2.0 0.00 0.00 0.00 82 1014.0
20260906120518 78 0 0.0 0.0 0.00 0.00 0.00 82 1014.0
20260906120036 78 0 0.0 0.0 0.00 0.00 0.00 82 1014.0
20260906115521 79 0 0.0 0.0 0.00 0.00 0.00 82 1014.0
20260906115018 79 0 0.0 1.0 0.00 0.00 0.00 82 1013.9
20260906114536 79 0 0.0 2.0 0.00 0.00 0.00 82 1013.9
20260906114020 78 0 0.0 2.0 0.00 0.00 0.00 82 1013.8
20260906113517 78 0 0.0 1.0 0.00 0.00 0.00 82 1013.8
20260906113035 79 0 0.0 2.0 0.00 0.00 0.00 82 1013.7
20260906112521 79 0 0.0 2.0 0.00 0.00 0.00 82 1013.6
20260906112020 79 0 0.0 2.0 0.00 0.00 0.00 82 1013.7
20260906111540 79 101 0.0 2.0 0.00 0.00 0.00 82 1013.6
20260906111018 79 0 0.0 1.0 0.00 0.00 0.00 81 1013.6
20260906110519 79 0 0.0 1.0 0.00 0.00 0.00 81 1013.7
20260906110036 79 0 0.0 0.0 0.00 0.00 0.00 81 1013.6
20260906105518 79 0 0.0 0.0 0.00 0.00 0.00 81 1013.6
20260906105018 79 0 0.0 0.0 0.00 0.00 0.00 80 1013.5
20260906104538 79 0 0.0 0.0 0.00 0.00 0.00 80 1013.5
20260906104021 79 0 0.0 0.0 0.00 0.00 0.00 79 1013.5
20260906103520 79 0 0.0 0.0 0.00 0.00 0.00 79 1013.4
20260906103036 80 0 0.0 0.0 0.00 0.00 0.00 79 1013.5
20260906102518 79 0 0.0 0.0 0.00 0.00 0.00 79 1013.4
20260906102019 79 0 0.0 0.0 0.00 0.00 0.00 79 1013.3
20260906101533 79 0 0.0 0.0 0.00 0.00 0.00 79 1013.5
20260906101018 79 0 0.0 0.0 0.00 0.00 0.00 79 1013.4
20260906100519 79 0 0.0 0.0 0.00 0.00 0.00 79 1013.3
20260906100039 80 0 0.0 0.0 0.00 0.00 0.00 78 1013.3
20260906095517 80 0 0.0 0.0 0.00 0.00 0.00 78 1013.3
20260906095016 80 0 0.0 0.0 0.00 0.00 0.00 78 1013.2
20260906094537 80 0 0.0 3.0 0.00 0.00 0.00 77 1013.2
20260906094019 81 0 0.0 3.0 0.00 0.00 0.00 76 1013.0
20260906093519 81 0 0.0 3.0 0.00 0.00 0.00 76 1012.9
20260906093036 81 0 0.0 3.0 0.00 0.00 0.00 76 1012.9
20260906092517 81 0 1.0 3.0 0.00 0.00 0.00 76 1012.9
20260906092018 81 172 0.0 5.0 0.00 0.00 0.00 75 1012.9
20260906091536 81 182 1.0 5.0 0.00 0.00 0.00 75 1012.9
20260906091018 81 214 1.0 4.0 0.00 0.00 0.00 75 1012.7
20260906090517 82 187 2.0 5.0 0.00 0.00 0.00 75 1012.8
20260906090038 82 218 2.0 5.0 0.00 0.00 0.00 75 1012.7
20260906085517 82 236 2.0 7.0 0.00 0.00 0.00 75 1012.7
20260906085022 82 149 3.0 7.0 0.00 0.00 0.00 74 1012.7
20260906084538 82 217 1.0 5.0 0.00 0.00 0.00 74 1012.8
20260906084020 82 0 1.0 8.0 0.00 0.00 0.00 74 1012.8
20260906083519 82 178 2.0 8.0 0.00 0.00 0.00 74 1012.8
20260906083032 82 172 3.0 8.0 0.00 0.00 0.00 74 1012.7
20260906082521 82 214 3.0 6.0 0.00 0.00 0.00 74 1012.7
20260906082018 82 160 1.0 5.0 0.00 0.00 0.00 74 1012.7
20260906081534 82 219 2.0 5.0 0.00 0.00 0.00 74 1012.4
20260906081016 82 0 1.0 5.0 0.00 0.00 0.00 73 1012.7
20260906080522 83 190 3.0 8.0 0.00 0.00 0.00 73 1012.8
20260906080039 83 183 1.0 8.0 0.00 0.00 0.00 73 1012.9
20260906075517 83 210 2.0 6.0 0.00 0.00 0.00 73 1012.9
20260906075017 83 219 3.0 6.0 0.00 0.00 0.00 73 1013.0
20260906074536 83 222 3.0 6.0 0.00 0.00 0.00 73 1013.0
20260906074023 83 214 2.0 4.0 0.00 0.00 0.00 73 1012.9
20260906073519 83 185 1.0 5.0 0.00 0.00 0.00 73 1012.8
20260906073035 83 187 2.0 5.0 0.00 0.00 0.00 72 1012.9
20260906072519 83 179 2.0 5.0 0.00 0.00 0.00 72 1012.9
20260906072021 83 217 2.0 7.0 0.00 0.00 0.00 72 1012.9
20260906071533 83 220 1.0 7.0 0.00 0.00 0.00 72 1012.9
20260906071018 83 201 3.0 9.0 0.00 0.00 0.00 71 1013.0
20260906070518 83 205 3.0 10.0 0.00 0.00 0.00 71 1013.1
20260906070035 83 182 3.0 10.0 0.00 0.00 0.00 71 1013.1
20260906065521 84 160 3.0 8.0 0.00 0.00 0.00 71 1013.1
20260906065017 84 201 3.0 7.0 0.00 0.00 0.00 71 1013.2
20260906064532 84 151 2.0 7.0 0.00 0.00 0.00 70 1013.2
20260906064019 84 172 3.0 7.0 0.00 0.00 0.00 70 1013.2
20260906063516 84 159 3.0 7.0 0.00 0.00 0.00 69 1013.3
20260906063035 84 196 2.0 6.0 0.00 0.00 0.00 69 1013.2
20260906062517 84 192 3.0 6.0 0.00 0.00 0.00 68 1013.1
20260906062020 84 172 3.0 6.0 0.00 0.00 0.00 68 1013.0
20260906061536 84 197 2.0 7.0 0.00 0.00 0.00 68 1013.1
20260906061017 84 211 1.0 7.0 0.00 0.00 0.00 68 1013.1
20260906060516 85 146 2.0 6.0 0.00 0.00 0.00 67 1013.1
20260906060033 85 201 1.0 8.0 0.00 0.00 0.00 67 1013.1
20260906055522 85 189 2.0 8.0 0.00 0.00 0.00 67 1013.2
20260906055020 85 199 2.0 7.0 0.00 0.00 0.00 66 1013.1
20260906054533 85 159 3.0 7.0 0.00 0.00 0.00 66 1013.2
20260906054017 85 186 2.0 7.0 0.00 0.00 0.00 66 1013.2
20260906053518 85 178 2.0 7.0 0.00 0.00 0.00 66 1013.1
20260906053037 85 212 0.0 4.0 0.00 0.00 0.00 66 1012.9
20260906052523 85 0 1.0 6.0 0.00 0.00 0.00 66 1012.9
20260906052021 85 216 2.0 6.0 0.00 0.00 0.00 65 1012.9
20260906051536 85 149 1.0 5.0 0.00 0.00 0.00 65 1012.9
20260906051024 86 0 1.0 7.0 0.00 0.00 0.00 65 1013.0
20260906050516 86 0 1.0 7.0 0.00 0.00 0.00 64 1013.1
20260906050041 86 184 3.0 7.0 0.00 0.00 0.00 64 1013.1
20260906045518 86 202 2.0 7.0 0.00 0.00 0.00 64 1013.0
20260906045018 86 133 3.0 11.0 0.00 0.00 0.00 64 1013.1
20260906044534 86 172 4.0 11.0 0.00 0.00 0.00 64 1013.0
20260906044025 86 195 3.0 8.0 0.00 0.00 0.00 64 1013.1
20260906043519 86 0 3.0 6.0 0.00 0.00 0.00 64 1013.2
20260906043038 86 131 3.0 6.0 0.00 0.00 0.00 64 1013.2
20260906042519 86 0 1.0 9.0 0.00 0.00 0.00 63 1013.2
20260906042019 86 100 2.0 9.0 0.00 0.00 0.00 63 1013.2
20260906041533 87 186 4.0 8.0 0.00 0.00 0.00 63 1013.0
20260906041019 87 171 2.0 8.0 0.00 0.00 0.00 62 1013.0
20260906040518 87 132 4.0 9.0 0.00 0.00 0.00 62 1013.0
20260906040039 87 177 3.0 9.0 0.00 0.00 0.00 62 1012.9
20260906035518 87 169 3.0 8.0 0.00 0.00 0.00 62 1013.0
20260906035019 87 213 3.0 8.0 0.00 0.00 0.00 62 1013.1
20260906034541 87 188 3.0 9.0 0.00 0.00 0.00 62 1013.1
20260906034020 87 182 4.0 9.0 0.00 0.00 0.00 62 1013.1
20260906033519 87 0 2.0 10.0 0.00 0.00 0.00 62 1013.1
20260906033044 87 0 3.0 10.0 0.00 0.00 0.00 61 1012.9
20260906032518 87 190 4.0 11.0 0.00 0.00 0.00 61 1013.0
20260906032019 87 213 6.0 13.0 0.00 0.00 0.00 61 1013.1
20260906031536 88 145 5.0 13.0 0.00 0.00 0.00 60 1013.1
20260906031019 88 157 5.0 11.0 0.00 0.00 0.00 60 1013.2
20260906030517 88 233 4.0 16.0 0.00 0.00 0.00 60 1013.1
20260906030039 88 197 5.0 16.0 0.00 0.00 0.00 60 1013.1
20260906025521 88 168 7.0 15.0 0.00 0.00 0.00 59 1013.1
20260906025021 88 124 3.0 13.0 0.00 0.00 0.00 59 1013.0
20260906024542 88 113 3.0 15.0 0.00 0.00 0.00 59 1012.9
20260906024020 88 194 6.0 15.0 0.00 0.00 0.00 59 1012.8
20260906023524 88 164 5.0 14.0 0.00 0.00 0.00 59 1012.8
20260906023036 88 84 4.0 13.0 0.00 0.00 0.00 59 1012.6
20260906022518 88 181 3.0 10.0 0.00 0.00 0.00 59 1012.6
20260906022016 88 151 4.0 10.0 0.00 0.00 0.00 59 1012.4
20260906021538 88 132 3.0 10.0 0.00 0.00 0.00 58 1012.3
20260906021024 88 155 4.0 10.0 0.00 0.00 0.00 58 1012.3
20260906020520 89 166 3.0 10.0 0.00 0.00 0.00 57 1012.3
20260906020049 89 170 4.0 12.0 0.00 0.00 0.00 57 1012.4
20260906015518 89 163 5.0 12.0 0.00 0.00 0.00 57 1012.2
20260906015019 89 206 4.0 11.0 0.00 0.00 0.00 57 1012.3
20260906014544 89 155 4.0 13.0 0.00 0.00 0.00 56 1012.2
20260906014018 90 122 4.0 13.0 0.00 0.00 0.00 55 1012.1
20260906013519 90 178 5.0 12.0 0.00 0.00 0.00 54 1012.0
20260906013036 91 145 3.0 12.0 0.00 0.00 0.00 53 1012.0
20260906012519 91 172 6.0 17.0 0.00 0.00 0.00 52 1011.8
20260906012018 92 151 8.0 17.0 0.00 0.00 0.00 51 1011.8
20260906011535 93 157 8.0 17.0 0.00 0.00 0.00 50 1011.6
20260906011021 93 157 5.0 16.0 0.00 0.00 0.00 50 1011.5
20260906010524 93 259 6.0 12.0 0.00 0.00 0.00 50 1011.5
20260906010040 94 159 2.0 12.0 0.00 0.00 0.00 49 1011.4
20260906005522 94 184 6.0 12.0 0.00 0.00 0.00 48 1011.3
20260906005020 94 86 2.0 10.0 0.00 0.00 0.00 46 1011.2
20260906004538 94 82 0.0 7.0 0.00 0.00 0.00 45 1011.3
20260906004022 95 118 1.0 8.0 0.00 0.00 0.00 45 1011.3
20260906003518 95 197 1.0 8.0 0.00 0.00 0.00 45 1011.2
20260906003038 95 168 2.0 8.0 0.00 0.00 0.00 44 1011.2
20260906002519 95 180 2.0 8.0 0.00 0.00 0.00 44 1011.3
20260906002019 96 103 2.0 7.0 0.00 0.00 0.00 44 1011.3
20260906001536 96 49 2.0 9.0 0.00 0.00 0.00 43 1011.3
20260906001016 96 140 2.0 9.0 0.00 0.00 0.00 43 1011.2
20260906000521 96 160 2.0 9.0 0.00 0.00 0.00 42 1011.2
20260906000041 97 155 3.0 10.0 0.00 0.00 0.00 42 1011.2
20260905235521 96 145 3.0 10.0 0.00 0.00 0.00 42 1011.1
20260905235023 97 148 2.0 8.0 0.00 0.00 0.00 42 1011.0
20260905234535 97 0 3.0 8.0 0.00 0.00 0.00 42 1011.0
20260905234018 97 149 1.0 7.0 0.00 0.00 0.00 42 1010.9
20260905233519 97 151 1.0 7.0 0.00 0.00 0.00 42 1010.9
20260905233039 97 0 1.0 7.0 0.00 0.00 0.00 42 1010.9
20260905232522 97 58 2.0 6.0 0.00 0.00 0.00 41 1011.0
20260905232019 97 138 1.0 6.0 0.00 0.00 0.00 40 1011.0
20260905231543 98 105 1.0 9.0 0.00 0.00 0.00 40 1011.0
20260905231019 98 59 2.0 9.0 0.00 0.00 0.00 39 1011.0
20260905230517 98 171 3.0 8.0 0.00 0.00 0.00 40 1010.9